CDT,Max TemperatureF,Mean TemperatureF,Min TemperatureF,Max Dew PointF,MeanDew PointF,Min DewpointF,Max Humidity, Mean Humidity, Min Humidity, Max Sea Level PressureIn, Mean Sea Level PressureIn, Min Sea Level PressureIn, Max VisibilityMiles, Mean VisibilityMiles, Min VisibilityMiles, Max Wind SpeedMPH, Mean Wind SpeedMPH, Max Gust SpeedMPH,PrecipitationIn, CloudCover, Events, WindDirDegrees
2013-10-1,88,81,73,72,71,69,93,74,55,29.99,29.93,29.87,10,8,2,14,8,18,0.00,5,,153
2013-10-2,87,80,73,72,71,68,93,75,57,30.04,29.98,29.90,10,10,10,15,8,18,0.00,5,,153
2013-10-3,88,80,72,72,71,69,93,74,55,29.99,29.94,29.86,10,10,10,14,9,18,0.00,5,,171
2013-10-4,88,80,72,72,69,66,93,72,51,29.97,29.92,29.88,10,10,10,16,9,21,0.00,2,,172
2013-10-5,87,72,57,73,64,44,88,69,50,30.07,29.97,29.90,10,10,10,22,10,25,0.00,5,,219
2013-10-6,75,64,53,51,43,35,93,58,23,30.11,30.05,30.01,10,10,10,17,7,23,0.00,1,,319
2013-10-7,80,65,49,47,41,32,80,50,19,30.16,30.10,30.06,10,10,10,13,3,20,0.00,0,,347
2013-10-8,79,65,51,53,50,45,83,60,37,30.14,30.08,30.03,10,10,10,10,3,13,0.00,0,,95
2013-10-9,81,68,55,56,54,51,86,63,39,30.12,30.05,30.01,10,10,10,10,6,15,0.00,0,,144
2013-10-10,83,70,56,61,57,53,93,67,40,30.09,30.02,29.94,10,10,10,13,7,22,0.00,0,,149
2013-10-11,86,75,63,68,65,61,93,74,55,29.99,29.93,29.87,10,10,7,16,8,21,0.00,3,,164
2013-10-12,85,77,69,73,71,64,100,87,74,30.10,30.00,29.91,10,9,0,39,8,58,0.94,5,Rain-Thunderstorm,178
2013-10-13,73,71,68,69,67,66,97,88,79,30.22,30.15,30.05,10,10,9,12,6,15,0.00,6,,75
2013-10-14,76,73,69,71,68,65,90,85,79,30.17,30.06,29.98,10,9,8,12,8,15,0.04,7,Rain,125
2013-10-15,78,69,60,72,71,69,93,88,82,30.01,29.96,29.92,10,6,1,15,8,60,1.34,8,Rain,327
2013-10-16,60,58,56,57,56,54,100,97,93,30.07,30.02,29.96,10,8,2,14,8,20,1.03,8,Rain,347
2013-10-17,72,62,51,55,52,48,100,72,44,30.13,30.06,30.01,10,10,10,10,3,15,0.00,1,,343
2013-10-18,72,62,51,58,53,49,96,70,44,30.04,30.00,29.94,10,10,9,15,4,17,T,4,Rain,123
2013-10-19,65,55,45,58,45,38,93,65,37,30.19,30.11,30.01,10,10,10,20,8,26,0.00,3,,340
2013-10-20,71,57,42,49,44,41,100,70,39,30.11,30.04,29.95,10,8,2,14,6,20,0.00,2,,173
2013-10-21,75,65,54,66,58,48,90,79,68,30.06,29.99,29.94,10,10,9,18,6,25,T,6,Rain-Thunderstorm,185
2013-10-22,74,64,54,54,48,40,93,62,31,30.16,30.09,30.04,10,10,9,13,7,17,0.00,3,,330
2013-10-23,79,64,49,55,49,46,93,63,32,30.14,30.10,30.07,10,10,10,9,3,15,0.00,0,,185
2013-10-24,81,68,55,56,51,47,80,57,33,30.27,30.17,30.09,10,10,10,12,6,15,0.00,0,,286
2013-10-25,67,59,50,52,45,38,86,65,44,30.43,30.34,30.28,10,10,10,18,10,24,0.00,0,,85
2013-10-26,77,65,52,66,56,44,77,69,60,30.27,30.17,30.08,10,8,1,35,8,48,1.69,6,Rain-Thunderstorm,137
2013-10-27,67,63,59,61,59,57,100,89,78,30.15,30.08,30.03,10,10,6,16,2,21,0.18,8,Rain,321
2013-10-28,78,68,57,65,62,57,100,82,64,30.16,30.09,30.04,10,9,2,15,7,18,0.00,5,,133
2013-10-29,79,73,67,68,66,64,100,84,67,30.15,30.10,30.04,10,10,7,14,9,20,0.00,5,,153
2013-10-30,70,67,64,70,65,61,100,94,87,30.09,29.98,29.84,10,7,1,22,10,29,2.27,7,Rain-Thunderstorm,127
2013-10-31,79,67,54,70,61,41,100,64,27,29.90,29.78,29.69,10,9,2,23,9,35,0.47,4,Rain-Thunderstorm,234